TimeCDT,TemperatureF,Dew PointF,Humidity,Sea Level PressureIn,VisibilityMPH,Wind Direction,Wind SpeedMPH,Gust SpeedMPH,PrecipitationIn,Events,Conditions,WindDirDegrees,DateUTC
12:35 AM,69.8,40.1,34,29.88,10.0,SSE,13.8,19.6,N/A,,Clear,160,2013-03-16 05:35:00
12:55 AM,69.1,40.6,36,29.88,10.0,SSE,19.6,24.2,N/A,,Clear,160,2013-03-16 05:55:00
1:15 AM,68.2,43.5,41,29.87,10.0,South,16.1,25.3,N/A,,Clear,170,2013-03-16 06:15:00
1:55 AM,67.1,46.4,47,29.87,10.0,South,18.4,27.6,N/A,,Clear,170,2013-03-16 06:55:00
2:15 AM,66.2,47.3,51,29.87,10.0,South,15.0,24.2,N/A,,Clear,170,2013-03-16 07:15:00
2:35 AM,65.7,47.8,53,29.87,10.0,South,12.7,-,N/A,,Clear,170,2013-03-16 07:35:00
2:55 AM,65.3,48.2,54,29.87,10.0,South,11.5,18.4,N/A,,Clear,170,2013-03-16 07:55:00
3:15 AM,64.6,48.7,56,29.87,10.0,SSE,9.2,-,N/A,,Clear,160,2013-03-16 08:15:00
3:35 AM,64.4,49.1,58,29.86,10.0,SSE,6.9,17.3,N/A,,Clear,150,2013-03-16 08:35:00
3:55 AM,63.5,49.1,59,29.86,10.0,SSE,6.9,-,N/A,,Clear,150,2013-03-16 08:55:00
4:35 AM,62.8,49.1,61,29.85,10.0,SE,8.1,-,N/A,,Clear,140,2013-03-16 09:35:00
4:55 AM,62.2,49.1,62,29.84,10.0,SE,6.9,-,N/A,,Clear,140,2013-03-16 09:55:00
5:15 AM,61.7,49.1,63,29.84,10.0,SE,6.9,-,N/A,,Clear,140,2013-03-16 10:15:00
5:35 AM,61.2,49.1,65,29.84,10.0,SSE,8.1,-,N/A,,Clear,150,2013-03-16 10:35:00
5:55 AM,60.8,49.1,65,29.84,10.0,SSE,6.9,-,N/A,,Clear,160,2013-03-16 10:55:00
6:15 AM,60.1,49.1,67,29.85,10.0,SSE,5.8,-,N/A,,Clear,150,2013-03-16 11:15:00
6:35 AM,59.9,49.1,67,29.84,10.0,SE,8.1,-,N/A,,Clear,140,2013-03-16 11:35:00
6:55 AM,59.7,49.1,68,29.84,10.0,SSE,9.2,-,N/A,,Clear,150,2013-03-16 11:55:00
7:15 AM,59.5,49.1,68,29.84,10.0,SSE,8.1,-,N/A,,Clear,150,2013-03-16 12:15:00
7:35 AM,59.0,49.1,70,29.85,10.0,SSE,6.9,-,N/A,,Clear,160,2013-03-16 12:35:00
7:55 AM,58.6,49.1,71,29.85,10.0,SSE,8.1,-,N/A,,Clear,160,2013-03-16 12:55:00
8:15 AM,59.2,49.5,70,29.84,10.0,SSE,8.1,-,N/A,,Clear,160,2013-03-16 13:15:00
8:35 AM,60.3,49.6,68,29.85,10.0,SSE,8.1,-,N/A,,Clear,160,2013-03-16 13:35:00
8:55 AM,61.9,49.8,65,29.85,10.0,South,10.4,-,N/A,,Clear,170,2013-03-16 13:55:00
9:15 AM,63.3,49.8,61,29.85,10.0,SSE,9.2,-,N/A,,Clear,160,2013-03-16 14:15:00
9:35 AM,65.1,49.8,58,29.85,10.0,South,15.0,-,N/A,,Clear,180,2013-03-16 14:35:00
9:55 AM,66.6,50.0,55,29.84,10.0,South,16.1,20.7,N/A,,Clear,170,2013-03-16 14:55:00
10:15 AM,67.8,50.2,53,29.85,10.0,South,12.7,-,N/A,,Clear,180,2013-03-16 15:15:00
10:35 AM,69.1,50.2,51,29.84,10.0,South,15.0,19.6,N/A,,Clear,170,2013-03-16 15:35:00
10:55 AM,70.9,50.5,48,29.84,10.0,South,12.7,-,N/A,,Clear,170,2013-03-16 15:55:00
11:15 AM,72.3,50.9,47,29.83,10.0,South,18.4,23.0,N/A,,Clear,170,2013-03-16 16:15:00
11:35 AM,74.1,50.9,44,29.82,10.0,SSE,18.4,24.2,N/A,,Clear,160,2013-03-16 16:35:00
11:55 AM,76.1,51.4,42,29.82,10.0,South,16.1,20.7,N/A,,Clear,170,2013-03-16 16:55:00
12:15 PM,77.5,50.9,39,29.81,10.0,SSE,15.0,-,N/A,,Clear,150,2013-03-16 17:15:00
12:35 PM,79.3,51.4,38,29.80,10.0,SSE,12.7,17.3,N/A,,Clear,160,2013-03-16 17:35:00
12:55 PM,80.1,50.5,36,29.79,10.0,South,18.4,23.0,N/A,,Clear,170,2013-03-16 17:55:00
1:15 PM,81.0,51.3,36,29.78,10.0,SSE,13.8,20.7,N/A,,Clear,160,2013-03-16 18:15:00
1:35 PM,82.0,50.4,33,29.77,10.0,South,16.1,24.2,N/A,,Clear,170,2013-03-16 18:35:00
1:55 PM,82.6,50.7,33,29.77,10.0,SSE,18.4,-,N/A,,Clear,150,2013-03-16 18:55:00
2:15 PM,83.7,50.4,31,29.76,10.0,SSE,15.0,24.2,N/A,,Clear,160,2013-03-16 19:15:00
2:35 PM,84.7,50.4,30,29.74,10.0,South,16.1,21.9,N/A,,Clear,170,2013-03-16 19:35:00
2:55 PM,85.1,50.0,30,29.73,10.0,SSE,16.1,24.2,N/A,,Clear,160,2013-03-16 19:55:00
3:15 PM,85.5,50.4,30,29.72,10.0,SSE,19.6,27.6,N/A,,Clear,160,2013-03-16 20:15:00
3:35 PM,85.5,50.2,29,29.70,10.0,South,15.0,25.3,N/A,,Clear,170,2013-03-16 20:35:00
3:55 PM,86.9,52.5,31,29.70,10.0,SSE,15.0,-,N/A,,Clear,160,2013-03-16 20:55:00
4:15 PM,86.9,52.5,31,29.69,10.0,SSE,12.7,23.0,N/A,,Clear,160,2013-03-16 21:15:00
4:35 PM,86.2,51.3,30,29.68,10.0,South,16.1,26.5,N/A,,Clear,170,2013-03-16 21:35:00
4:55 PM,86.2,51.1,30,29.68,10.0,SSE,17.3,26.5,N/A,,Clear,160,2013-03-16 21:55:00
5:15 PM,86.2,50.7,29,29.67,10.0,SSE,17.3,23.0,N/A,,Clear,150,2013-03-16 22:15:00
5:35 PM,85.5,50.7,30,29.67,10.0,SSE,17.3,28.8,N/A,,Clear,160,2013-03-16 22:35:00
5:55 PM,84.7,51.1,31,29.67,10.0,South,13.8,21.9,N/A,,Clear,170,2013-03-16 22:55:00
6:15 PM,84.6,50.9,31,29.67,10.0,SSE,12.7,24.2,N/A,,Clear,150,2013-03-16 23:15:00
6:35 PM,84.2,51.1,32,29.68,10.0,SSE,13.8,21.9,N/A,,Clear,150,2013-03-16 23:35:00
6:55 PM,82.9,50.7,33,29.68,10.0,SSE,11.5,23.0,N/A,,Clear,150,2013-03-16 23:55:00
7:15 PM,81.7,50.4,34,29.68,10.0,SE,12.7,20.7,N/A,,Clear,140,2013-03-17 00:15:00
7:35 PM,80.6,50.5,35,29.68,10.0,SE,11.5,-,N/A,,Clear,140,2013-03-17 00:35:00
7:55 PM,79.9,50.4,36,29.68,10.0,SE,15.0,-,N/A,,Clear,140,2013-03-17 00:55:00
8:15 PM,78.8,50.5,37,29.68,10.0,SE,11.5,17.3,N/A,,Clear,140,2013-03-17 01:15:00
8:35 PM,77.5,51.4,40,29.69,10.0,SE,11.5,-,N/A,,Clear,140,2013-03-17 01:35:00
8:55 PM,77.0,51.4,41,29.69,10.0,SE,13.8,19.6,N/A,,Clear,140,2013-03-17 01:55:00
9:15 PM,75.7,51.3,42,29.70,10.0,SSE,13.8,18.4,N/A,,Clear,150,2013-03-17 02:15:00
9:35 PM,75.4,50.5,42,29.70,10.0,SSE,15.0,20.7,N/A,,Clear,150,2013-03-17 02:35:00
9:55 PM,75.4,50.0,41,29.70,10.0,SSE,15.0,20.7,N/A,,Clear,150,2013-03-17 02:55:00
10:15 PM,74.7,50.0,42,29.70,10.0,SE,15.0,18.4,N/A,,Clear,140,2013-03-17 03:15:00
10:35 PM,74.3,50.5,43,29.70,10.0,SE,13.8,20.7,N/A,,Clear,140,2013-03-17 03:35:00
10:55 PM,73.4,51.8,47,29.72,10.0,SSE,16.1,21.9,N/A,,Clear,150,2013-03-17 03:55:00
11:15 PM,72.7,53.4,51,29.72,10.0,SSE,13.8,18.4,N/A,,Clear,150,2013-03-17 04:15:00
11:35 PM,72.0,54.5,54,29.72,10.0,SSE,12.7,21.9,N/A,,Clear,150,2013-03-17 04:35:00
11:55 PM,71.6,55.8,57,29.72,10.0,SSE,16.1,23.0,N/A,,Clear,150,2013-03-17 04:55:00